This is the latest recevied weather packets stored in our database for station/object KC3JUG-13. If no packets are shown the sender has not sent any weather packets the latest 10 day(s).
| Time | Temp. | Humidity | Pressure | Rain* | Wind** | Luminosity | Snow |
|---|---|---|---|---|---|---|---|
| 1777636727 | 5.56° C | 87% | 1016.7 hPa | 0 mm | - | - | - |
| 1777635947 | 5° C | 89% | 1016.9 hPa | 0 mm | - | - | - |
| 1777635167 | 5° C | 90% | 1017 hPa | 0 mm | - | - | - |
| 1777634387 | 4.44° C | 91% | 1016.7 hPa | 0 mm | - | - | - |
| 1777633607 | 3.89° C | 92% | 1016.7 hPa | 0 mm | - | - | - |
| 1777632827 | 3.89° C | 93% | 1016.6 hPa | 0 mm | - | - | - |
| 1777632047 | 3.33° C | 94% | 1016.5 hPa | 0 mm | - | - | - |
| 1777631267 | 3.33° C | 94% | 1016.4 hPa | 0 mm | - | - | - |
| 1777630487 | 3.33° C | 93% | 1016.4 hPa | 0 mm | - | - | - |
| 1777629708 | 3.33° C | 93% | 1016.3 hPa | 0 mm | - | - | - |
| 1777628927 | 3.33° C | 93% | 1016.3 hPa | 0 mm | - | - | - |
| 1777628147 | 3.33° C | 93% | 1016.2 hPa | 0 mm | - | - | - |
| 1777627367 | 3.33° C | 93% | 1016.2 hPa | 0 mm | - | - | - |
| 1777626587 | 3.33° C | 92% | 1016.1 hPa | 0 mm | - | - | - |
| 1777625807 | 3.89° C | 92% | 1016.1 hPa | 0 mm | - | - | - |
| 1777625027 | 3.89° C | 92% | 1015.9 hPa | 0 mm | - | - | - |
| 1777624248 | 3.89° C | 92% | 1015.9 hPa | 0 mm | - | - | - |
| 1777623467 | 3.89° C | 91% | 1015.7 hPa | 0 mm | - | - | - |
| 1777622688 | 3.89° C | 91% | 1015.8 hPa | 0 mm | - | - | - |
| 1777621907 | 4.44° C | 90% | 1015.7 hPa | 0 mm | - | - | - |
| 1777621128 | 4.44° C | 89% | 1015.7 hPa | 0 mm | - | - | - |
| 1777620348 | 5° C | 89% | 1015.7 hPa | 0 mm | - | - | - |
| 1777619568 | 5° C | 87% | 1015.6 hPa | 0 mm | - | - | - |
| 1777618788 | 5.56° C | 87% | 1015.5 hPa | 0 mm | - | - | - |
| 1777618008 | 5.56° C | 87% | 1015.5 hPa | 0 mm | - | - | - |
* Rain latest hour (hover to see other rain measurements)
** Current wind speed in m/s (hover to see current wind gust speed)